Weather History for Lancaster, PA

Change the Weather History Date:

Tuesday, April 9, 2013

  Actual Average Record
Temperature  
Mean Temperature 68 °F -  
Max Temperature 81 °F 60 °F 86 °F (1991)
Min Temperature 55 °F 38 °F 25 °F (1985)
Cooling Degree Days 3    
Growing Degree Days 18 (Base 50)    
Moisture  
Dew Point 49 °F    
Average Humidity 48    
Maximum Humidity 72    
Minimum Humidity 29    
Precipitation  
Precipitation 0.00 in - - ()
Sea Level Pressure  
Sea Level Pressure 29.97 in    
Wind  
Wind Speed 7 mph (WSW)    
Max Wind Speed 18 mph    
Max Gust Speed 25 mph    
Visibility 10 miles    
Events      
Averages and records for this station are not official NWS values.
T = Trace of Precipitation, MM = Missing Value Source: NWS Daily Summary

Daily Weather History Graph

Daily Weather History Graph

Search for Another Location

Airport:

Trip Planner

Search our weather history database for the weather conditions in past years. The results will help you decide how hot, cold, wet, or windy it might be!

Date:

Astronomy

Apr. 09, 2013 Rise Set
Actual Time 6:36 AM EDT 7:37 PM EDT
Civil Twilight 6:08 AM EDT 8:05 PM EDT
Nautical Twilight 5:35 AM EDT 8:38 PM EDT
Astronomical Twilight 5:00 AM EDT 9:13 PM EDT
Moon 5:57 AM EDT (4/9) 7:11 PM EDT (4/9)
Length of Visible Light 13h 57m
Length of Day
13h 01m
Waning Crescent, 1% of the Moon is Illuminated
Apr 9
Waning Crescent
Apr 10
New
Apr 18
First Quarter
Apr 25
Full
May 2
Last Quarter

Hourly Weather History & Observations

Time (EDT) Temp. Dew Point Humidity Pressure Visibility Wind Dir Wind Speed Gust Speed Precip Events Conditions
12:53 AM 66.0 °F 48.0 °F 52% 29.94 in 10.0 mi SSW 4.6 mph - N/A   Mostly Cloudy
1:53 AM 64.9 °F 48.0 °F 54% 29.94 in 10.0 mi WSW 8.1 mph - N/A   Mostly Cloudy
2:53 AM 63.0 °F 46.9 °F 56% 29.94 in 10.0 mi West 4.6 mph - N/A   Partly Cloudy
3:53 AM 59.0 °F 46.9 °F 64% 29.94 in 10.0 mi Calm Calm - N/A   Clear
4:53 AM 60.1 °F 46.9 °F 62% 29.96 in 10.0 mi Calm Calm - N/A   Clear
5:53 AM 57.0 °F 46.0 °F 67% 29.98 in 10.0 mi West 4.6 mph - N/A   Clear
6:53 AM 55.0 °F 46.0 °F 72% 30.00 in 8.0 mi Calm Calm - N/A   Scattered Clouds
7:53 AM 57.9 °F 46.9 °F 67% 30.02 in 6.0 mi West 3.5 mph - N/A   Haze
8:53 AM 64.9 °F 48.9 °F 56% 30.02 in 10.0 mi West 9.2 mph - N/A   Clear
9:53 AM 71.1 °F 51.1 °F 49% 30.03 in 10.0 mi West 11.5 mph - N/A   Clear
10:53 AM 73.9 °F 51.1 °F 45% 30.03 in 10.0 mi WNW 18.4 mph - N/A   Clear
11:53 AM 75.9 °F 51.1 °F 42% 30.03 in 10.0 mi WNW 15.0 mph 25.3 mph N/A   Clear
12:53 PM 77.0 °F 48.9 °F 37% 30.01 in 10.0 mi West 12.7 mph 21.9 mph N/A   Partly Cloudy
1:53 PM 79.0 °F 48.9 °F 35% 30.00 in 10.0 mi WNW 16.1 mph 19.6 mph N/A   Clear
2:53 PM 80.1 °F 48.0 °F 32% 29.98 in 10.0 mi WNW 13.8 mph - N/A   Clear
3:53 PM 81.0 °F 46.0 °F 29% 29.96 in 10.0 mi West 12.7 mph - N/A   Clear
4:53 PM 79.0 °F 50.0 °F 36% 29.94 in 10.0 mi West 4.6 mph - N/A   Partly Cloudy
5:53 PM 80.1 °F 50.0 °F 35% 29.94 in 10.0 mi SW 10.4 mph - N/A   Partly Cloudy
6:53 PM 78.1 °F 50.0 °F 37% 29.94 in 10.0 mi WSW 9.2 mph - N/A   Clear
7:53 PM 75.0 °F 50.0 °F 41% 29.94 in 10.0 mi SSW 4.6 mph - N/A   Clear
8:53 PM 75.0 °F 50.0 °F 41% 29.95 in 10.0 mi South 3.5 mph - N/A   Mostly Cloudy
9:53 PM 72.0 °F 50.0 °F 46% 29.94 in 10.0 mi South 9.2 mph - N/A   Scattered Clouds
10:53 PM 70.0 °F 51.1 °F 51% 29.91 in 10.0 mi South 9.2 mph - N/A   Clear
11:53 PM 69.1 °F 51.1 °F 53% 29.88 in 10.0 mi South 11.5 mph - N/A   Clear